Le nostre stazioni meteo in Italia

Pubblicità
Il mio iltempo24.it
Ponza, Italia (16280): Temperatura & dewpoint: 19.04.2018 20:00:00 - 25.04.2018 20:00:00 (CEST)Ponza, Italia (16280): velocità del vento: 19.04.2018 20:00:00 - 25.04.2018 20:00:00 (CEST)Ponza, Italia (16280): direzione del vento: 19.04.2018 20:00:00 - 25.04.2018 20:00:00 (CEST)Ponza, Italia (16280): reduced air pressure: 19.04.2018 20:00:00 - 25.04.2018 20:00:00 (CEST)Ponza, Italia (16280): visibility: 19.04.2018 20:00:00 - 25.04.2018 20:00:00 (CEST)Ponza, Italia (16280): ore di luce: 19.04.2018 20:00:00 - 25.04.2018 20:00:00 (CEST)
Data & Tempo tt [°C] td [°C] ff [km/h] ff [kn] dd ppp [hPa] vv [km] sd [min]
25.04.2018 20:00:00 17,2 16,2 11 6 NO 1015,8 15 -
25.04.2018 19:00:00 18,8 17,3 5 3 NO 1015,7 15 -
25.04.2018 18:00:00 20,0 18,3 4 2 NO 1016,5 15 -
25.04.2018 17:00:00 - - - - - - - -
25.04.2018 16:00:00 20,4 17,4 4 2 ONO 1016,5 20 -
25.04.2018 15:00:00 22,4 17,3 4 2 NO 1016,7 20 -
25.04.2018 14:00:00 23,4 18,7 4 2 NNO 1017,4 20 60
25.04.2018 13:00:00 21,4 18,2 5 3 NE 1017,8 10 60
25.04.2018 12:00:00 21,0 18,4 9 5 E 1018,0 10 60
25.04.2018 11:00:00 20,0 17,2 9 5 E 1018,0 10 60
25.04.2018 10:00:00 18,6 16,2 5 3 E 1018,6 10 60
25.04.2018 09:00:00 18,0 16,0 8 4 ESE 1018,3 10 60
25.04.2018 08:00:00 17,0 15,0 8 4 ESE 1018,2 10 24
25.04.2018 07:00:00 16,8 13,0 4 2 E 1017,7 10 0
25.04.2018 06:00:00 16,8 13,0 8 4 E 1017,0 10 -
25.04.2018 05:00:00 16,8 14,6 5 3 E 1017,8 10 -
25.04.2018 04:00:00 - - - - - - - -
25.04.2018 03:00:00 17,4 13,5 4 2 O 1018,7 10 -
25.04.2018 02:00:00 17,2 12,9 5 3 O 1018,8 10 -
25.04.2018 01:00:00 17,0 14,8 4 2 O 1018,7 10 -
25.04.2018 00:00:00 17,0 14,8 4 2 ONO 1018,7 10 -
24.04.2018 23:00:00 17,0 14,8 5 3 O 1018,6 10 -
24.04.2018 22:00:00 17,2 15,5 8 4 ONO 1018,4 10 -
24.04.2018 21:00:00 17,8 14,3 4 2 O 1018,3 10 -
24.04.2018 20:00:00 - - - - - - - -
24.04.2018 19:00:00 19,6 14,4 4 2 ONO 1017,8 10 60
24.04.2018 18:00:00 20,4 14,3 5 3 O 1018,3 10 60
24.04.2018 17:00:00 21,0 16,0 9 5 O 1018,7 10 60
24.04.2018 16:00:00 21,0 16,4 5 3 O 1019,2 10 60
24.04.2018 15:00:00 21,4 17,2 4 2 O 1019,2 10 60
24.04.2018 14:00:00 21,0 17,6 4 2 ONO 1019,4 10 60
24.04.2018 13:00:00 - - - - - - - -
24.04.2018 12:00:00 19,0 17,3 0 0 N 1019,3 7 60
24.04.2018 11:00:00 18,4 17,3 0 0 N 1018,8 4,0 60
24.04.2018 10:00:00 16,2 15,6 0 0 N 1018,8 6 48
24.04.2018 09:00:00 16,0 15,4 0 0 N 1017,9 7 18
24.04.2018 08:00:00 15,8 15,2 0 0 N 1017,9 7 0
24.04.2018 07:00:00 15,8 15,0 0 0 N 1017,7 8 -
24.04.2018 06:00:00 16,0 15,2 0 0 N 1017,6 10 -
24.04.2018 05:00:00 16,0 15,4 5 3 ONO 1017,5 10 -
24.04.2018 04:00:00 16,0 15,4 8 4 O 1017,5 10 -
24.04.2018 03:00:00 16,0 15,4 9 5 ONO 1017,7 15 -
24.04.2018 02:00:00 16,0 15,4 9 5 ONO 1017,9 15 -
24.04.2018 01:00:00 16,2 15,4 13 7 ONO 1017,8 15 -
24.04.2018 00:00:00 16,6 15,8 13 7 ONO 1017,7 20 -
23.04.2018 23:00:00 16,6 15,8 13 7 ONO 1017,7 20 -
23.04.2018 22:00:00 17,0 16,7 9 5 ONO 1017,0 7 -
23.04.2018 21:00:00 17,4 17,2 13 7 O 1016,8 2,0 -
23.04.2018 20:00:00 18,0 17,8 13 7 O 1016,8 6 12
23.04.2018 19:00:00 19,0 18,5 15 8 O 1016,7 8 60
23.04.2018 18:00:00 19,8 18,6 15 8 ONO 1016,7 10 60
23.04.2018 17:00:00 - - - - - - - -
23.04.2018 16:00:00 20,4 18,5 8 4 ONO 1017,3 10 60
23.04.2018 15:00:00 19,6 17,2 9 5 ONO 1017,7 10 60
23.04.2018 14:00:00 19,0 17,1 9 5 O 1018,0 10 60
23.04.2018 13:00:00 19,2 17,5 5 3 O 1018,4 10 60
23.04.2018 12:00:00 19,0 17,5 5 3 O 1018,5 9 60
23.04.2018 11:00:00 18,2 17,0 8 4 O 1018,6 9 60
23.04.2018 10:00:00 17,4 16,6 5 3 O 1018,3 7 60
23.04.2018 09:00:00 16,6 15,6 8 4 O 1018,1 0,9 30
23.04.2018 08:00:00 16,4 15,8 9 5 O 1018,0 0,6 12
23.04.2018 07:00:00 16,0 15,4 13 7 O 1017,8 8 -
23.04.2018 06:00:00 15,6 15,0 15 8 ONO 1017,5 8 -
23.04.2018 05:00:00 15,6 15,0 13 7 ONO 1017,7 9 -
23.04.2018 04:00:00 - - - - - - - -
23.04.2018 03:00:00 15,8 15,2 11 6 O 1018,2 10 -
23.04.2018 02:00:00 15,8 15,2 9 5 O 1018,2 10 -
23.04.2018 01:00:00 16,0 15,0 9 5 O 1018,0 10 -
23.04.2018 00:00:00 16,4 15,4 9 5 O 1017,9 10 -
22.04.2018 23:00:00 16,8 15,8 13 7 O 1017,6 10 -
22.04.2018 22:00:00 16,8 15,7 11 6 O 1017,2 10 -
22.04.2018 21:00:00 17,2 16,2 9 5 O 1016,9 10 -
22.04.2018 20:00:00 18,2 17,4 11 6 O 1016,8 10 24
22.04.2018 19:00:00 18,6 17,4 13 7 O 1016,7 10 60
22.04.2018 18:00:00 19,8 18,5 8 4 O 1016,6 10 60
22.04.2018 17:00:00 20,4 17,4 8 4 O 1016,7 10 60
22.04.2018 16:00:00 20,4 17,2 4 2 SSO 1017,6 10 60
22.04.2018 15:00:00 20,4 17,0 8 4 S 1017,7 10 60
22.04.2018 14:00:00 21,8 20,8 4 2 SSO 1017,6 10 -
22.04.2018 13:00:00 - - - - - - - -
22.04.2018 12:00:00 19,0 17,3 4 2 SE 1018,6 8 60
22.04.2018 11:00:00 16,8 16,5 5 3 SE 1018,2 6 60
22.04.2018 10:00:00 15,0 14,8 9 5 ESE 1017,4 0,6 30
22.04.2018 09:00:00 15,8 15,5 8 4 ESE 1017,3 0,7 12
22.04.2018 08:00:00 16,0 15,7 15 8 ESE 1017,1 0,8 0
22.04.2018 07:00:00 16,4 15,8 4 2 ENE 1017,2 0,6 0
22.04.2018 06:00:00 16,2 15,7 5 3 E 1017,2 10 -
22.04.2018 05:00:00 16,2 15,6 9 5 E 1017,3 10 -
22.04.2018 04:00:00 - - - - - - - -
22.04.2018 03:00:00 17,6 15,6 8 4 OSO 1017,7 10 -
22.04.2018 02:00:00 17,6 15,6 9 5 OSO 1017,7 10 -
22.04.2018 01:00:00 18,0 16,3 5 3 E 1017,7 10 -
22.04.2018 00:00:00 18,6 15,8 8 4 SSE 1017,7 10 -
21.04.2018 23:00:00 18,8 15,3 9 5 E 1017,3 10 -
21.04.2018 22:00:00 19,4 13,4 4 2 SSE 1017,4 10 -
21.04.2018 21:00:00 19,6 15,7 0 0 N 1017,3 10 -
21.04.2018 20:00:00 19,6 13,8 5 3 SSO 1017,2 10 0
21.04.2018 19:00:00 19,8 14,2 0 0 N 1017,4 10 0
21.04.2018 18:00:00 20,0 17,4 8 4 SSO 1017,6 10 60
21.04.2018 17:00:00 20,8 17,8 0 0 N 1017,7 10 60
21.04.2018 16:00:00 21,0 18,8 9 5 S 1018,1 10 60
21.04.2018 15:00:00 22,8 20,2 0 0 N 1018,2 9 60
21.04.2018 14:00:00 20,0 18,7 0 0 N 1018,4 8 60
21.04.2018 13:00:00 19,4 18,4 5 3 ESE 1018,6 8 60
21.04.2018 12:00:00 19,8 19,0 4 2 E 1018,6 7 60
21.04.2018 11:00:00 19,0 18,2 4 2 E 1018,6 4,0 60
21.04.2018 10:00:00 20,0 18,1 4 2 E 1017,7 9 60
21.04.2018 09:00:00 19,0 17,7 0 0 N 1017,8 9 60
21.04.2018 08:00:00 17,8 16,7 0 0 N 1017,9 9 60
21.04.2018 07:00:00 16,2 15,6 9 5 NNO 1017,9 9 6
21.04.2018 06:00:00 17,4 16,2 5 3 NNO 1017,6 10 -
21.04.2018 05:00:00 17,2 15,7 5 3 NNO 1017,6 10 -
21.04.2018 04:00:00 19,2 15,1 8 4 NO 1017,6 10 -
21.04.2018 03:00:00 18,2 13,7 8 4 NNO 1017,7 10 -
21.04.2018 02:00:00 18,0 13,3 8 4 NO 1017,7 10 -
21.04.2018 01:00:00 17,6 14,1 9 5 NO 1017,8 10 -
21.04.2018 00:00:00 17,0 13,5 13 7 NO 1018,0 10 -
20.04.2018 23:00:00 17,2 14,7 11 6 ONO 1017,9 10 -
20.04.2018 22:00:00 17,5 16,2 11 6 O 1017,9 10 -
20.04.2018 21:00:00 18,4 17,1 16 9 NO 1017,9 10 -
20.04.2018 20:00:00 18,8 15,9 13 7 O 1017,5 15 -
20.04.2018 19:00:00 19,6 16,2 8 4 O 1017,6 20 60
20.04.2018 18:00:00 20,2 16,0 11 6 O 1017,7 20 60
20.04.2018 17:00:00 20,6 17,0 8 4 O 1018,3 20 60
20.04.2018 16:00:00 21,2 17,2 5 3 O 1018,5 20 60
20.04.2018 15:00:00 21,0 16,2 5 3 O 1019,6 20 60
20.04.2018 14:00:00 21,0 17,4 5 3 O 1019,8 20 60
20.04.2018 13:00:00 22,0 16,3 0 0 N 1019,7 20 60
20.04.2018 12:00:00 23,0 16,8 0 0 N 1020,0 20 60
20.04.2018 11:00:00 22,6 16,2 0 0 N 1019,8 20 60
20.04.2018 10:00:00 20,8 14,2 0 0 N 1019,7 20 60
20.04.2018 09:00:00 20,0 14,4 0 0 N 1019,7 20 60
20.04.2018 08:00:00 19,2 14,0 0 0 N 1019,9 15 60
20.04.2018 07:00:00 19,0 13,4 0 0 N 1019,9 20 36
20.04.2018 06:00:00 - - - - - - - -
20.04.2018 05:00:00 18,6 14,3 9 5 ONO 1020,2 15 -
20.04.2018 04:00:00 18,4 13,9 8 4 ONO 1020,9 20 -
20.04.2018 03:00:00 18,2 14,1 9 5 ONO 1020,8 10 -
20.04.2018 02:00:00 18,2 13,9 8 4 ONO 1021,1 15 -
20.04.2018 01:00:00 18,0 14,7 9 5 NO 1021,2 15 -
20.04.2018 00:00:00 18,0 14,1 9 5 NO 1021,3 15 -
19.04.2018 23:00:00 17,6 15,2 11 6 ONO 1021,9 20 -
19.04.2018 22:00:00 16,6 15,6 18 10 NO 1022,0 15 -
19.04.2018 21:00:00 16,4 15,6 22 12 ONO 1021,8 15 -
19.04.2018 20:00:00 17,0 15,7 26 14 NO 1021,8 20 36

tt = Temperatura
td = dewpoint
ff = velocità del vento
dd = direzione del vento
ppp = reduced air pressure
vv = visibility
sd = ore di luce

Stazioni seguenti

WeatherPro
AMSI
MeteoEarth